Location: Unspecified
(41.1850°N, 73.2650°W)
Time: 09:15:41
(UTC+00:00)

BlueWalker 3 - Pass Details

Date: 26 February 2026
Orbit: 451 x 458 km, 53.2° (Epoch: 6 March)

Event Time Altitude Azimuth Distance (km) Brightness Sun altitude
Exits shadow 10:20:43 25° 250° (WSW) 950 2.8 -14.2°
Maximum altitude 10:22:36 62° 324° (NW) 520 1.8 -13.8°
Drops below altitude 10° 10:26:10 10° 46° (NE) 1,598 5.2 -13.1°
Sets 10:28:19 0° 50° (NE) 2,473 6.3 -12.7°
